Temperature
17 17 17 16 16 16 16 16 16 15 15 15 14 14 14 14 13 13 13 13 13 13 13 13 13 13 13 13 13 13 13 12 12 12 12 12 12 12 11 11 11 11 11
16 16 16 16 16 15 15 15 15 15 15 14 14 14 14 13 13 13 13 13 13 13 12 13 13 13 13 13 12 12 12 12 12 12 12 12 11 11 11 11 11 11 10
15 15 15 15 15 15 14 14 14 14 14 14 14 13 13 13 13 13 13 12 12 12 12 12 12 12 12 12 12 12 12 12 11 11 11 11 11 11 11 11 10 10 10
15 14 15 15 14 14 14 14 13 13 13 13 13 13 12 12 12 12 12 12 12 12 12 12 12 12 12 11 11 11 11 11 11 11 11 11 10 10 10 10 10 10 9
14 14 14 14 14 14 13 13 13 13 12 12 12 12 12 12 12 12 12 12 12 12 12 12 11 11 11 11 11 10 10 10 10 10 10 10 10 10 9 9 9 9 9
14 14 14 14 13 13 13 13 13 12 12 12 12 12 12 12 11 11 12 12 12 11 11 11 11 11 11 11 10 10 9 10 10 9 9 9 9 9 8 8 8 8 8
14 14 14 14 13 13 13 13 12 12 12 12 12 11 12 11 11 11 11 11 11 11 11 11 11 11 10 10 10 9 9 8 9 9 8 8 8 8 7 7 7 7 7
14 14 13 13 13 13 13 13 12 12 12 12 12 11 11 11 12 12 12 11 11 11 11 11 10 10 10 10 9 9 8 8 7 7 7 7 7 6 6 6 6 5 5
14 14 13 13 13 13 13 13 12 12 12 12 12 11 11 11 11 12 12 11 11 11 11 10 10 10 9 9 9 8 7 7 6 6 5 5 5 5 5 5 4 4 4
13 13 13 13 13 12 12 12 12 12 11 11 11 11 11 11 10 11 11 11 11 11 10 10 9 9 9 8 8 7 7 6 6 5 4 4 4 4 4 3 3 3 3
13 13 12 12 12 12 12 12 12 11 11 11 11 11 10 10 10 10 10 10 10 10 10 10 9 9 8 8 7 7 6 6 5 4 4 3 3 3 3 3 3 3 3
12 12 12 12 12 12 12 11 11 11 11 11 10 10 10 10 9 9 9 9 9 9 9 9 8 8 8 7 7 6 6 5 5 4 3 3 2 2 2 2 2 2 2
12 11 11 11 11 11 11 11 11 11 10 10 10 10 10 9 9 9 8 8 8 8 8 8 8 7 7 6 6 5 5 4 4 3 2 2 2 2 2 2 2 1 1
11 11 11 11 10 10 10 10 10 10 10 10 10 9 9 9 9 8 8 8 7 7 7 7 7 6 6 5 5 4 4 4 3 2 2 1 1 1 1 1 1 1 1
9 9 10 10 10 10 10 9 9 9 9 9 9 9 8 8 8 8 7 7 7 6 6 6 6 6 5 4 4 4 3 3 2 1 1 1 1 1 0 0 0 -0 -0
8 8 9 9 9 9 9 9 9 9 9 8 8 8 7 7 7 7 6 6 6 6 5 5 5 4 4 4 3 2 2 1 1 1 0 0 -0 -0 -1 -1 -1 -1 -1
7 7 8 8 8 8 8 8 8 8 7 7 7 7 6 6 6 6 5 5 5 5 4 4 4 3 3 3 2 2 1 1 0 -0 -0 -1 -1 -1 -1 -1 -2 -2 -2
7 7 7 7 7 7 7 7 7 6 6 6 6 5 5 5 5 5 4 4 4 4 3 3 3 2 2 1 1 1 0 -0 -1 -1 -1 -1 -2 -2 -2 -3 -3 -3 -3
6 6 6 6 6 6 6 6 5 5 5 5 5 4 4 4 4 3 3 3 3 2 2 2 1 1 1 0 -0 -0 -1 -1 -1 -2 -2 -2 -3 -3 -3 -3 -3 -4 -3
5 5 5 4 4 4 4 4 4 4 4 4 4 3 3 3 2 2 2 2 1 1 1 1 0 -0 -0 -1 -1 -2 -2 -2 -2 -3 -3 -3 -3 -3 -3 -3 -3 -3 -3
4 3 3 3 3 3 3 3 3 3 3 3 2 2 2 1 1 1 0 0 -0 -0 -0 -1 -1 -2 -2 -2 -3 -3 -3 -3 -3 -3 -3 -3 -3 -3 -3 -3 -3 -3 -3
3 2 2 2 2 2 2 2 2 2 2 1 1 1 0 -0 -0 -1 -1 -1 -1 -1 -2 -2 -3 -3 -3 -4 -4 -4 -4 -4 -4 -4 -4 -3 -4 -3 -3 -3 -3 -3 -3
2 1 1 1 2 2 1 1 1 1 1 0 0 -0 -1 -1 -1 -1 -2 -2 -2 -3 -3 -3 -4 -4 -5 -5 -5 -5 -5 -5 -5 -5 -5 -3 -3 -4 -4 -4 -4 -4 -4
1 1 1 1 1 1 0 0 0 -0 -0 -1 -1 -1 -2 -2 -2 -3 -2 -3 -3 -4 -4 -5 -5 -5 -5 -6 -6 -6 -6 -6 -5 -6 -6 -5 -4 -3 -3 -3 -3 -4 -4
-0 0 0 -0 -0 -0 -0 -1 -1 -1 -1 -1 -2 -2 -3 -3 -4 -4 -4 -4 -4 -4 -5 -5 -6 -6 -6 -6 -6 -6 -6 -6 -6 -5 -5 -5 -5 -4 -3 -3 -3 -4 -4
-0 -0 -1 -1 -1 -1 -1 -2 -2 -2 -2 -2 -3 -3 -3 -4 -5 -5 -5 -5 -5 -5 -5 -5 -6 -6 -6 -6 -6 -6 -6 -7 -7 -7 -6 -6 -6 -6 -5 -4 -4 -4 -4
Wind_Speed
8 9 10 12 12 12 11 9 9 9 9 10 11 10 9 10 12 14 15 17 17 16 15 14 13 12 11 10 10 9 9 8 8 8 7 7 7 7 7 7 7 7 7
11 10 9 10 12 13 13 12 11 9 8 8 8 11 11 11 13 15 16 18 19 18 17 16 15 14 13 12 11 11 10 9 9 8 7 7 6 6 5 5 5 5 5
15 12 8 8 12 15 14 12 11 9 6 6 6 8 10 11 12 15 16 17 18 19 19 18 17 16 15 15 14 13 12 10 10 9 8 7 6 5 5 4 3 3 3
17 13 8 8 13 14 12 7 6 6 7 6 6 6 6 8 11 14 15 16 17 17 20 20 19 18 17 17 16 15 13 12 11 10 9 8 7 5 4 3 2 1 0
17 14 9 10 13 10 8 7 7 6 6 7 7 6 5 5 7 11 12 15 18 19 19 21 22 21 20 19 18 17 15 14 12 11 10 9 7 6 5 4 3 2 2
14 13 9 10 10 6 7 7 7 7 6 6 6 6 6 6 5 7 10 13 17 19 20 20 20 21 22 21 20 19 17 16 14 12 11 10 8 7 6 5 4 4 4
10 10 7 7 7 8 9 9 7 7 7 4 3 4 4 5 7 7 7 8 11 17 19 20 20 19 19 23 23 21 19 17 16 14 12 11 9 8 7 6 6 5 5
8 8 7 7 7 8 9 9 8 6 5 5 5 3 4 4 6 8 6 8 9 11 14 19 19 19 19 19 21 22 20 18 16 15 13 12 11 10 9 8 7 7 7
7 7 7 6 6 7 8 9 9 9 7 6 6 5 4 7 4 4 6 7 7 7 7 11 16 18 19 18 18 20 19 18 16 15 13 12 11 11 10 9 9 9 9
5 6 6 5 5 5 7 8 8 8 8 7 5 6 6 4 4 4 3 4 5 7 7 7 10 14 16 16 17 18 18 17 16 15 14 13 12 11 11 10 10 10 10
4 5 5 4 5 5 6 7 7 7 7 8 7 5 6 5 5 5 6 4 3 3 4 4 5 8 12 14 14 17 18 19 17 16 14 13 12 11 11 11 11 11 11
3 5 4 3 3 4 4 5 5 6 6 7 7 6 5 5 6 6 8 6 5 2 1 1 2 4 7 11 14 17 19 19 18 16 15 13 11 10 11 12 12 12 12
3 5 4 3 3 3 3 3 3 3 4 5 5 6 6 6 3 4 6 6 5 2 1 1 0 1 3 6 10 15 17 18 17 16 14 13 11 10 11 12 12 13 13
3 4 4 4 4 4 4 3 2 2 2 2 3 3 3 3 3 3 4 4 4 3 3 3 0 1 2 4 8 12 12 15 14 13 12 11 10 10 10 11 12 13 14
4 5 5 5 5 6 5 4 3 3 2 3 3 2 2 2 2 1 1 2 4 5 5 3 2 1 2 3 6 7 8 11 11 11 11 10 10 11 12 12 13 14 14
6 6 7 7 7 7 7 6 5 5 5 5 4 5 4 4 4 4 3 2 1 2 2 1 1 1 1 3 5 5 6 8 8 9 9 10 11 12 12 13 14 14 15
7 8 7 7 8 8 8 7 8 7 8 7 7 7 7 6 5 5 4 4 3 2 1 2 2 2 1 1 2 4 3 3 3 6 8 10 11 12 13 13 14 15 15
8 8 8 8 9 9 9 9 9 9 9 9 8 8 8 6 7 6 5 5 4 4 1 2 2 2 2 1 2 2 2 2 2 6 8 10 11 12 13 14 14 15 15
8 8 8 9 9 9 9 9 9 9 10 9 8 8 7 7 7 6 6 6 5 5 4 3 2 2 2 2 2 1 1 1 2 5 8 9 10 12 13 13 14 14 14
8 8 9 8 8 8 8 8 9 10 10 10 9 8 7 6 6 6 6 6 5 5 5 4 3 3 2 2 2 1 1 1 2 4 6 7 9 11 12 14 14 14 15
8 8 8 8 7 7 8 8 9 9 9 9 9 8 8 9 9 6 5 5 5 4 4 4 3 2 2 2 1 1 1 2 2 1 2 4 7 9 12 14 14 14 14
8 8 8 8 8 7 12 13 10 8 8 8 7 7 7 8 10 11 10 8 6 4 3 2 2 1 1 1 1 1 1 2 3 2 2 5 5 6 9 12 13 14 14
6 7 7 7 7 9 13 13 13 8 7 6 6 5 5 6 8 6 8 10 9 9 6 2 1 0 1 1 1 1 1 2 4 3 2 5 3 5 8 11 13 14 13
5 5 6 6 6 8 11 11 11 7 6 5 5 4 4 5 4 5 5 6 6 5 5 2 1 2 3 3 4 3 3 3 4 4 3 4 3 4 5 10 13 10 8
4 4 4 5 5 5 9 9 9 4 4 4 4 3 3 3 6 7 5 4 4 5 6 7 5 5 6 6 4 1 1 2 3 3 1 2 3 4 4 4 6 6 8
3 4 4 3 4 4 6 8 7 3 3 3 3 4 5 4 6 6 2 2 3 4 3 4 6 7 6 7 6 2 2 2 2 3 2 1 2 4 5 3 3 7 10
Wind_Direction
195 198 203 204 206 206 208 213 221 227 234 242 245 242 237 223 208 202 202 199 194 191 190 190 190 189 187 183 177 171 166 161 155 148 141 133 126 119 112 104 96 88 81
197 197 202 206 210 212 214 216 221 226 232 234 238 236 233 225 213 205 204 202 200 197 197 197 198 198 196 193 189 184 180 176 170 164 158 151 143 135 126 115 104 92 80
201 199 202 206 212 215 216 219 226 228 234 233 235 233 228 222 215 210 208 206 205 204 202 204 204 204 203 201 198 194 191 188 184 179 174 170 164 157 148 137 122 104 82
206 202 204 209 211 212 213 213 217 222 231 231 233 234 225 218 215 213 212 210 208 208 209 210 209 209 208 208 205 202 199 196 194 192 189 186 183 180 176 169 164 157 75
214 210 213 214 210 209 210 214 214 211 224 230 232 234 230 222 216 214 213 214 213 211 210 212 212 211 211 212 211 209 206 203 202 201 200 198 198 199 201 205 213 234 262
221 219 223 220 211 211 216 215 217 215 219 222 231 237 237 234 225 218 216 216 216 216 213 212 212 212 212 212 214 214 211 207 206 207 208 208 209 213 217 225 237 254 269
227 223 226 223 217 221 223 219 218 223 227 206 212 256 265 247 239 234 223 218 219 218 215 214 212 209 211 214 215 216 215 212 211 211 212 214 216 222 228 236 247 259 271
237 232 228 230 225 227 229 224 217 221 224 196 195 217 266 281 254 237 225 225 227 220 218 218 214 211 209 209 212 215 216 216 216 217 217 220 224 229 236 245 255 265 272
249 243 238 234 232 227 233 232 225 223 232 221 206 197 215 238 255 267 238 231 226 223 225 221 217 215 212 209 208 209 209 213 218 222 224 228 233 237 243 250 261 269 275
275 265 257 248 243 236 235 236 230 227 228 233 227 227 228 210 219 266 269 249 233 225 223 221 216 214 210 207 204 202 202 206 215 224 230 236 240 244 250 257 265 273 281
317 302 284 270 258 251 246 243 236 229 226 232 226 220 234 240 230 241 266 261 259 247 234 225 211 207 206 202 200 200 201 207 216 224 232 238 245 254 262 271 278 284 288
344 347 334 314 287 274 268 261 255 246 240 239 236 223 218 221 222 228 248 250 245 244 253 249 232 215 204 198 200 200 201 204 212 223 230 236 242 256 270 279 284 289 290
353 347 353 345 326 312 302 291 277 268 260 254 249 243 238 241 234 232 245 252 244 236 274 279 303 208 197 188 194 195 200 203 210 218 225 235 248 262 272 278 286 290 291
353 346 356 3 1 1 356 348 339 315 311 286 280 269 254 255 249 234 232 236 251 244 237 237 149 203 170 173 184 184 195 201 208 214 228 244 259 273 279 282 284 286 289
12 13 15 17 15 17 17 21 30 12 13 18 7 8 358 356 0 333 286 231 231 245 244 212 187 114 141 146 172 171 177 196 205 220 232 247 263 270 273 276 278 281 282
26 27 31 32 31 30 29 38 40 33 46 38 37 46 45 35 37 33 28 10 316 244 245 72 97 73 136 157 167 157 175 196 214 231 243 255 264 270 273 276 277 278 278
35 37 38 41 41 38 36 47 49 47 55 52 49 56 53 47 48 38 38 37 27 26 179 73 57 57 84 125 126 134 154 191 228 253 266 272 275 276 277 277 277 277 277
42 43 45 49 48 46 45 52 55 55 59 57 53 57 54 54 51 43 44 42 34 26 64 97 60 53 57 109 102 122 159 201 243 269 275 277 278 278 278 279 277 277 277
50 49 52 54 52 50 52 55 61 63 62 60 56 58 53 58 56 49 50 47 38 36 43 77 67 52 52 68 80 75 76 4 279 278 282 285 287 286 287 286 283 282 282
57 55 55 57 58 58 57 59 64 65 64 60 55 53 50 55 60 57 54 47 47 47 49 62 61 49 45 51 68 54 2 344 298 299 297 296 296 297 297 293 290 288 287
61 56 57 55 55 64 67 68 66 68 66 62 53 45 47 56 60 62 64 55 52 50 47 52 50 39 28 30 26 11 335 328 303 308 321 302 300 296 294 293 290 287 283
61 59 57 55 54 62 72 75 77 68 65 63 56 44 43 44 46 47 52 52 51 57 53 52 40 32 349 336 345 359 5 4 317 311 318 293 278 278 282 283 284 285 284
68 63 57 55 54 61 70 74 75 72 65 60 55 46 43 36 38 34 37 36 31 35 44 94 106 281 279 268 252 294 264 243 256 273 305 289 279 276 278 283 294 293 290
74 72 63 55 52 59 69 74 78 69 63 56 53 53 47 14 13 50 42 27 16 10 10 34 203 240 243 242 226 226 238 261 267 262 226 268 294 282 292 295 299 297 300
89 80 72 63 54 46 66 74 79 66 56 41 30 33 37 5 9 29 46 23 5 348 358 0 351 334 326 319 298 228 277 308 304 291 242 253 300 306 296 293 304 314 318
111 100 83 66 54 29 61 73 82 76 59 35 16 6 6 3 2 9 54 16 334 314 328 343 349 352 354 352 359 29 181 202 260 289 288 282 297 331 316 291 270 280 289
Height
1558 1559 1559 1560 1561 1561 1562 1562 1562 1562 1562 1563 1563 1563 1563 1562 1562 1562 1562 1562 1562 1561 1561 1560 1559 1559 1558 1557 1557 1556 1555 1555 1555 1555 1554 1554 1554 1553 1553 1553 1552 1552 1552
1556 1556 1557 1557 1558 1559 1559 1560 1560 1560 1560 1560 1560 1560 1560 1560 1559 1559 1559 1559 1559 1559 1559 1558 1558 1557 1556 1556 1555 1554 1554 1554 1553 1553 1553 1553 1552 1552 1552 1552 1551 1551 1551
1554 1554 1554 1555 1556 1556 1557 1557 1557 1557 1557 1557 1556 1557 1557 1557 1557 1556 1556 1556 1556 1556 1556 1555 1555 1555 1554 1553 1553 1552 1552 1552 1552 1551 1551 1551 1551 1551 1550 1550 1550 1550 1550
1551 1551 1551 1552 1553 1553 1553 1553 1553 1553 1553 1553 1553 1553 1553 1553 1553 1553 1553 1552 1552 1552 1552 1552 1552 1552 1551 1551 1550 1550 1550 1549 1549 1549 1549 1549 1549 1549 1549 1548 1548 1548 1548
1548 1548 1549 1549 1550 1550 1550 1550 1549 1549 1549 1549 1549 1549 1549 1549 1549 1549 1548 1548 1548 1548 1548 1548 1548 1548 1548 1547 1547 1547 1547 1546 1546 1546 1546 1546 1546 1546 1546 1546 1546 1546 1546
1545 1545 1545 1545 1546 1546 1545 1545 1545 1545 1545 1545 1545 1545 1544 1544 1544 1543 1543 1543 1543 1543 1543 1543 1543 1543 1543 1543 1543 1543 1543 1543 1543 1543 1543 1543 1543 1543 1543 1543 1543 1543 1543
1540 1540 1540 1541 1541 1541 1541 1541 1541 1541 1541 1541 1541 1539 1538 1538 1538 1537 1537 1537 1537 1537 1536 1537 1537 1537 1538 1538 1538 1539 1539 1539 1539 1539 1539 1539 1539 1540 1540 1540 1540 1540 1540
1535 1535 1535 1535 1536 1536 1536 1536 1536 1535 1535 1536 1535 1534 1532 1531 1530 1530 1530 1530 1530 1530 1530 1530 1530 1530 1531 1532 1533 1533 1534 1534 1535 1535 1535 1535 1535 1536 1536 1536 1536 1536 1536
1530 1530 1530 1530 1530 1530 1529 1530 1530 1530 1529 1529 1529 1529 1526 1522 1523 1523 1522 1522 1522 1522 1522 1523 1523 1523 1524 1524 1525 1526 1527 1528 1529 1529 1530 1531 1531 1531 1532 1532 1532 1532 1532
1525 1525 1524 1524 1524 1524 1524 1524 1524 1523 1523 1522 1522 1522 1521 1520 1519 1515 1515 1516 1515 1515 1515 1515 1515 1515 1516 1516 1517 1518 1520 1521 1522 1524 1524 1525 1526 1527 1527 1527 1527 1527 1527
1519 1518 1518 1518 1518 1518 1518 1517 1517 1517 1517 1516 1516 1515 1515 1514 1512 1511 1508 1508 1508 1508 1507 1507 1507 1508 1508 1508 1509 1510 1511 1513 1515 1517 1518 1519 1520 1521 1522 1523 1522 1522 1521
1513 1513 1512 1512 1512 1512 1511 1511 1511 1511 1510 1510 1509 1508 1508 1507 1506 1505 1503 1501 1500 1500 1500 1500 1500 1500 1500 1500 1501 1502 1503 1504 1506 1509 1511 1512 1513 1514 1515 1516 1516 1515 1515
1507 1507 1507 1506 1506 1505 1505 1505 1504 1504 1504 1503 1502 1502 1501 1500 1500 1499 1498 1495 1494 1493 1492 1492 1492 1492 1492 1493 1493 1495 1496 1498 1499 1501 1504 1506 1507 1507 1508 1509 1509 1508 1508
1502 1502 1501 1501 1500 1500 1499 1499 1498 1498 1497 1497 1496 1496 1495 1494 1494 1493 1492 1491 1488 1487 1485 1485 1485 1485 1485 1485 1487 1488 1490 1491 1493 1495 1497 1499 1500 1500 1501 1501 1501 1501 1500
1498 1497 1496 1496 1495 1494 1494 1493 1492 1492 1491 1490 1490 1489 1489 1488 1488 1487 1486 1485 1485 1481 1480 1479 1480 1479 1479 1480 1481 1482 1484 1485 1487 1489 1491 1492 1493 1494 1494 1494 1494 1494 1493
1493 1493 1492 1491 1490 1490 1489 1488 1488 1487 1486 1485 1484 1484 1483 1483 1482 1481 1481 1480 1479 1478 1476 1475 1475 1475 1475 1476 1477 1478 1479 1481 1482 1484 1486 1487 1487 1487 1487 1487 1487 1487 1487
1490 1489 1488 1487 1486 1486 1485 1484 1483 1482 1481 1481 1480 1479 1479 1478 1478 1477 1476 1475 1475 1474 1473 1472 1471 1471 1472 1472 1473 1474 1475 1477 1478 1479 1480 1481 1481 1481 1481 1481 1481 1481 1480
1487 1486 1485 1484 1484 1483 1482 1481 1480 1479 1478 1477 1477 1476 1476 1475 1475 1474 1473 1472 1471 1471 1470 1469 1469 1469 1469 1470 1470 1471 1472 1472 1473 1474 1474 1475 1475 1476 1476 1475 1475 1475 1474
1485 1484 1483 1482 1481 1481 1480 1479 1478 1477 1476 1475 1475 1475 1474 1473 1473 1472 1471 1470 1469 1468 1468 1468 1467 1467 1467 1468 1468 1469 1469 1469 1469 1469 1469 1470 1470 1470 1470 1469 1469 1468 1468
1484 1483 1482 1481 1480 1479 1479 1478 1477 1476 1475 1475 1474 1474 1473 1472 1471 1470 1469 1468 1468 1467 1466 1466 1466 1466 1466 1466 1466 1466 1466 1466 1466 1465 1465 1465 1465 1465 1464 1463 1463 1462 1461
1483 1482 1481 1481 1480 1479 1478 1477 1476 1476 1475 1474 1474 1473 1472 1471 1470 1469 1469 1468 1467 1466 1465 1465 1464 1464 1464 1464 1464 1463 1463 1462 1462 1461 1461 1461 1460 1459 1459 1458 1457 1456 1456
1483 1483 1482 1481 1480 1479 1478 1477 1476 1476 1475 1474 1474 1473 1472 1471 1470 1469 1467 1467 1466 1465 1464 1464 1463 1463 1463 1462 1461 1461 1460 1459 1459 1459 1457 1457 1456 1455 1454 1453 1452 1451 1451
1483 1483 1482 1481 1480 1479 1478 1477 1477 1476 1475 1474 1473 1472 1471 1470 1469 1468 1467 1466 1465 1464 1464 1463 1462 1461 1461 1460 1459 1459 1458 1457 1456 1455 1454 1452 1452 1451 1450 1448 1447 1446 1445
1484 1484 1483 1482 1481 1480 1479 1478 1477 1476 1475 1474 1473 1472 1471 1469 1468 1467 1466 1465 1464 1463 1462 1461 1460 1459 1459 1458 1457 1457 1455 1454 1454 1453 1451 1448 1447 1446 1445 1444 1442 1442 1441
1484 1484 1483 1482 1481 1480 1479 1478 1477 1476 1475 1474 1473 1471 1470 1469 1467 1466 1465 1463 1462 1461 1460 1459 1459 1458 1457 1456 1455 1454 1453 1452 1450 1449 1448 1446 1443 1441 1440 1439 1438 1437 1436
1485 1484 1483 1483 1482 1480 1479 1478 1477 1476 1475 1473 1472 1471 1469 1468 1467 1465 1464 1462 1461 1460 1459 1458 1457 1456 1455 1454 1453 1452 1451 1449 1448 1446 1444 1443 1440 1438 1435 1433 1433 1433 1431